User: anonymous   Login
Location: Owatonna
(44.0840°N, 93.2260°W)
Time: 19:12:33
(UTC-06:00)
Language:

Cosmos 1500 Rocket - Orbit

View from above orbital plane
View from above orbital plane
View from above satellite
View from above satellite

Ground track
Ground track

The orbit data is extracted from the following two-line orbital elements,

1 14373U 83099B   14331.77899382  .00000516  00000-0  59985-4 0  8331
2 14373 082.5423 035.7167 0021563 066.1581 073.1294 14.83247471682639
Epoch (UTC): 27 November 2014 18:41:45
Eccentricity: 0.0021563
inclination: 82.5423°
perigee height: 604 km
apogee height: 634 km
right ascension of ascending node: 35.7167°
argument of perigee: 66.1581°
revolutions per day: 14.83247471
mean anomaly at epoch: 73.1294°
orbit number at epoch: 68263

The dashed part of the orbit path shows where the satellite is in the earth's shadow,  

DLR